Regional Weather Roundup
Issued by NWS Lake Charles, LA

Home | Current Version | Previous Version | Text Only | Print | Product List | Glossary On
Versions: 1 2 3 4 5 6 7 8 9 10 11 12 13 14 15 16 17 18 19 20 21 22 23 24 25 26
000
ASUS44 KLCH 180510
RWRLCH
REGIONAL WEATHER ROUNDUP
NATIONAL WEATHER SERVICE LAKE CHARLES LA
1100 PM CST SAT FEB 17 2018

Note: "fair" indicates few or no clouds below 12,000 feet with no
significant weather and/or obstructions to visibility.


ACROSS SOUTHEAST TEXAS

CITY           SKY/WX    TMP DP  RH WIND       PRES   REMARKS
BEAUMONT       CLOUDY    62  60  93 N6        30.13F
BEAUMONT CITY  CLOUDY    62  59  91 NE6       30.15F
ORANGE         CLOUDY    61  61 100 NE5       30.16F
JASPER         CLOUDY    59  56  89 NE6       30.19S
$$

ACROSS CENTRAL LOUISIANA

CITY           SKY/WX    TMP DP  RH WIND       PRES   REMARKS
LEESVILLE      CLOUDY    57  54  90 NE3       30.16S
FULLERTON      CLOUDY    61  56  83 CALM      30.15S
ALEXANDRIA INT CLOUDY    56  53  90 NE5       30.17S
ESLER FIELD    CLOUDY    56  54  93 VRB5      30.18F
DERIDDER       CLOUDY    58  57  96 CALM      30.18F
OAKDALE        LGT RAIN  59  57  93 E3        30.17F
OPELOUSAS      CLOUDY    59  57  94 NE8       30.17S
$$

ACROSS SOUTHWEST AND SOUTH CENTRAL LOUISIANA

CITY           SKY/WX    TMP DP  RH WIND       PRES   REMARKS
SULPHUR        CLOUDY    65  64  95 NE6       30.15F
LAKE CHARLES   CLOUDY    64  62  93 NE10      30.14F
CHENNAULT INT  CLOUDY    62  60  94 NE9       30.15F
CAMERON PHI    FOG       66  66 100 S5        30.14F VSB 1/4
DEQUINCY       DRIZZLE   59  58  97 N3        30.17S
JENNINGS       CLOUDY    63  61  93 NE8       30.15S
LAFAYETTE      CLOUDY    64  62  93 NE9       30.16S
NEW IBERIA     CLOUDY    69  66  90 W7        30.15F
ABBEVILLE      CLOUDY    68  68 100 SW5       30.15F
PATTERSON      CLOUDY    67  67 100 CALM      30.15F
SALT POINT       N/A     66  66 100 SE3       30.13F
$$

SELECTED SITES ACROSS THE REGION

CITY           SKY/WX    TMP DP  RH WIND       PRES   REMARKS
HOUSTON BUSH   CLOUDY    60  54  80 NE9       30.14F
HOUSTON HOBBY  MOCLDY    63  58  83 NE7       30.13F
GALVESTON      CLOUDY    64  62  93 N8        30.13F
COLLEGE STAT   CLOUDY    53  51  93 NE10      30.17S
CONROE         CLOUDY    56  54  93 NE3       30.17R
HUNTSVILLE     CLOUDY    53  51  93 NE3       30.17S
LUFKIN         CLOUDY    53  52  96 NE6       30.18S
SHREVEPORT     CLOUDY    51  49  92 NE8       30.19F
MONROE         CLOUDY    50  48  93 NE9       30.24S
NATCHEZ MS     LGT RAIN  54  53  97 N7        30.19F
BATON ROUGE    CLOUDY    63  61  93 N7        30.16S
N.O. INTL ARPT MOCLDY    70  67  90 SW6       30.15F
SLIDELL        CLOUDY    68  63  84 CALM      30.14S
$$

MARINE REPORTS

STATION/POSITION TIME  SKY/WX   TEMP    WIND        PRES    VSBY
                                AIR SEA DIR/SP/G
                 (UTC)          (F)     (DEG/KT/KT) (MB)    (MI)
BUOY 30 S HIGH I 0350            64 62  180/  4/  6 1020.4
WVE H/P(F/S)=  2/ 5

SEA RIM ST PARK  0500            66      40/  1/  2 1020.6F
PORT ARTHUR      0448            61 61   60/  3/  5 1020.6F
SABINE PASS N    0448            64 66   20/  3/  4 1022.1F
TEXAS POINT      NOT AVBL
CALCASIEU PASS   0448            65 62  190/  8/  9 1019.3F
LK CHARLES BEACH 0448            62 66              1020.6F
MARSH ISLAND     0400            67                   N/A
FRESH WATER LOCK 0448            66 67  150/  4/  4 1020.8F
AMERADA PASS     0448            68 58     CALM     1020.9F
$$




USA.gov is the U.S. government's official web portal to all federal, state and local government web resources and services.